K4AVM-13 Weather Reports


time (UTC)temp
C
wind
direction
speed
KPH
gust
KPH
rain 1hr
cm
rain 24hr
cm
rain mn
cm
humidity
%
barometer
mb
20260508065555 7 130 0.0 0.0 0.00 0.00 0.00 99 1015.0
20260508065053 7 122 0.0 0.0 0.00 0.00 0.00 99 1014.9
20260508064550 7 130 0.0 0.0 0.00 0.00 0.00 99 1015.1
20260508064048 7 127 0.0 0.0 0.00 0.00 0.00 99 1014.9
20260508063545 7 125 0.0 0.0 0.00 0.00 0.00 99 1014.8
20260508063043 7 120 0.0 0.0 0.00 0.00 0.00 99 1014.7
20260508062540 7 123 0.0 0.0 0.00 0.00 0.00 99 1014.7
20260508062037 7 133 0.0 0.0 0.00 0.00 0.00 99 1014.7
20260508061535 7 132 0.0 0.0 0.00 0.00 0.00 99 1014.7
20260508061031 7 128 0.0 0.0 0.00 0.00 0.00 99 1014.4
20260508060528 7 141 0.0 0.0 0.00 0.00 0.00 99 1014.6
20260508060026 7 132 0.0 0.0 0.00 0.00 0.00 99 1014.5
20260508055521 7 134 0.0 0.0 0.00 0.00 0.00 99 1014.4
20260508055018 7 134 0.0 0.0 0.00 0.00 0.00 99 1014.4
20260508054515 7 133 0.0 0.0 0.00 0.00 0.00 99 1014.4
20260508054012 7 132 0.0 0.0 0.00 0.00 0.00 99 1014.4
20260508053509 7 128 0.0 0.0 0.00 0.00 0.00 99 1014.4
20260508053007 7 125 0.0 0.0 0.00 0.00 0.00 99 1014.4
20260508052504 7 123 0.0 0.0 0.00 0.00 0.00 99 1014.4
20260508052000 7 130 0.0 0.0 0.00 0.00 0.00 99 1014.5
20260508051456 7 131 0.0 0.0 0.00 0.00 0.00 99 1014.3
20260508050952 7 133 0.0 0.0 0.00 0.00 0.00 99 1014.3
20260508050449 7 131 0.0 0.0 0.00 0.00 0.00 99 1014.3
20260508045945 7 129 0.0 0.0 0.00 0.00 0.00 99 1014.3
20260508045443 7 126 0.0 0.0 0.00 0.00 0.00 99 1014.3
20260508044940 7 124 0.0 0.0 0.00 0.00 0.00 99 1014.1
20260508044437 7 129 0.0 0.0 0.00 0.00 0.00 99 1014.1
20260508043932 7 130 0.0 0.0 0.00 0.00 0.00 99 1014.2
20260508043430 7 131 0.0 0.0 0.00 0.00 0.00 99 1014.2
20260508042926 7 133 0.0 0.0 0.00 0.00 0.00 99 1014.0
20260508042424 7 133 0.0 0.0 0.00 0.00 0.00 99 1014.2
20260508041921 7 130 0.0 0.0 0.00 0.00 0.00 99 1014.2
20260508041417 7 129 0.0 0.0 0.00 0.00 0.00 99 1014.2
20260508040914 7 131 0.0 0.0 0.00 0.00 0.00 99 1014.1
20260508040411 8 133 0.0 0.0 0.00 0.00 0.00 99 1013.9
20260508035909 8 133 0.0 0.0 0.00 0.36 0.36 99 1013.9
20260508035406 8 131 0.0 0.0 0.00 0.36 0.36 99 1013.8
20260508034902 8 135 0.0 0.0 0.00 0.36 0.36 99 1013.9
20260508034359 8 136 0.0 0.0 0.00 0.36 0.36 99 1013.9
20260508033851 8 136 0.0 0.0 0.00 0.36 0.36 99 1013.9
20260508033349 8 132 0.0 0.0 0.00 0.36 0.36 99 1013.8
20260508032846 8 137 0.0 0.0 0.00 0.36 0.36 99 1013.7
20260508032343 8 136 0.0 0.0 0.00 0.36 0.36 99 1013.8
20260508031840 8 136 0.0 0.0 0.00 0.36 0.36 99 1014.0
20260508031337 8 135 0.0 0.0 0.00 0.36 0.36 99 1013.9
20260508030833 8 134 0.0 0.0 0.00 0.36 0.36 99 1013.9
20260508030330 8 135 0.0 0.0 0.00 0.36 0.36 99 1013.8
20260508025827 8 135 0.0 0.0 0.00 0.36 0.36 99 1013.7
20260508025324 8 135 0.0 0.0 0.00 0.36 0.36 99 1013.7
20260508024821 8 111 0.0 0.0 0.00 0.36 0.36 99 1013.5
20260508024317 8 140 0.0 0.0 0.00 0.36 0.36 99 1013.6
20260508023814 8 136 0.0 0.0 0.00 0.36 0.36 99 1013.4
20260508023311 8 141 0.0 0.0 0.00 0.36 0.36 99 1013.6
20260508022807 7 141 0.0 0.0 0.00 0.36 0.36 99 1013.6
20260508022306 8 141 0.0 0.0 0.00 0.36 0.36 99 1013.5
20260508021801 8 141 0.0 0.0 0.00 0.36 0.36 99 1013.7
20260508021256 8 141 0.0 0.0 0.00 0.36 0.36 99 1013.6
20260508020753 8 144 0.0 0.0 0.00 0.36 0.36 99 1013.5
20260508020251 8 139 0.0 0.0 0.00 0.36 0.36 99 1013.3
20260508015747 8 138 0.0 0.0 0.00 0.36 0.36 98 1013.5
20260508015245 8 136 0.0 0.0 0.00 0.36 0.36 98 1013.0
20260508014741 8 141 0.0 0.0 0.00 0.36 0.36 98 1013.3
20260508014238 8 141 0.0 0.0 0.00 0.36 0.36 98 1013.2
20260508013734 8 141 0.0 0.0 0.00 0.36 0.36 98 1013.3
20260508013231 8 139 0.0 0.0 0.00 0.36 0.36 98 1013.4
20260508012728 8 136 0.0 0.0 0.00 0.36 0.36 98 1013.4
20260508012225 8 135 0.0 0.0 0.00 0.36 0.36 97 1013.3
20260508011723 8 143 0.0 0.0 0.00 0.36 0.36 97 1013.3
20260508011220 8 144 0.0 0.0 0.00 0.36 0.36 97 1013.3
20260508010717 9 145 0.0 0.0 0.00 0.36 0.36 97 1013.3
20260508010215 9 145 0.0 0.0 0.00 0.36 0.36 97 1013.3
20260508005712 9 145 0.0 0.0 0.00 0.36 0.36 97 1013.3
20260508005209 10 151 0.0 0.0 0.00 0.36 0.36 97 1013.3
20260508004704 10 136 0.0 0.0 0.00 0.36 0.36 96 1013.1
20260508004200 10 136 0.0 0.0 0.00 0.36 0.36 96 1012.9
20260508003657 10 144 0.0 0.0 0.00 0.36 0.36 96 1012.8
20260508003155 10 145 0.0 0.0 0.00 0.36 0.36 96 1013.0
20260508002651 10 145 0.0 0.0 0.00 0.36 0.36 96 1013.1
20260508002149 10 149 0.0 0.0 0.00 0.36 0.36 95 1013.0
20260508001644 10 144 0.0 0.0 0.00 0.36 0.36 95 1012.8
20260508001140 10 141 0.0 0.0 0.00 0.36 0.36 95 1012.5
20260508000636 10 151 0.0 0.0 0.00 0.36 0.36 94 1012.5
20260508000134 10 153 0.0 0.0 0.00 0.36 0.36 94 1012.4
20260507235630 10 157 0.0 0.0 0.00 0.36 0.36 93 1012.4
20260507235128 10 157 0.0 0.0 0.00 0.36 0.36 93 1012.5
20260507234624 10 158 0.0 0.0 0.00 0.36 0.36 93 1012.2
20260507234121 10 152 0.0 0.0 0.00 0.36 0.36 92 1012.1
20260507233618 10 152 0.0 0.0 0.00 0.36 0.36 92 1012.1
20260507233116 10 155 0.0 0.0 0.00 0.36 0.36 90 1012.0
20260507232613 10 155 0.0 0.0 0.00 0.36 0.36 90 1012.1
20260507232110 10 155 0.0 0.0 0.00 0.36 0.36 90 1012.0
20260507231606 10 153 0.0 0.0 0.00 0.36 0.36 89 1011.9
20260507231103 10 153 0.0 0.0 0.00 0.36 0.36 89 1012.0
20260507230600 10 153 0.0 0.0 0.00 0.36 0.36 89 1012.1
20260507230056 10 152 0.0 0.0 0.00 0.36 0.36 91 1011.9
20260507225551 10 154 0.0 0.0 0.00 0.36 0.36 91 1011.8
20260507225048 10 161 0.0 0.0 0.00 0.36 0.36 90 1012.0
20260507224544 10 164 0.0 0.0 0.00 0.36 0.36 89 1011.9
20260507224041 11 155 0.0 0.0 0.00 0.36 0.36 88 1011.8
20260507223537 11 145 0.0 3.2 0.00 0.36 0.36 87 1011.8
20260507223034 11 140 0.0 0.0 0.00 0.36 0.36 91 1011.9
20260507222531 11 151 0.0 0.0 0.00 0.36 0.36 91 1012.0
20260507222027 11 153 0.0 0.0 0.00 0.36 0.36 92 1012.1
20260507221524 11 147 0.0 0.0 0.00 0.36 0.36 93 1011.7
20260507221021 11 151 0.0 0.0 0.00 0.36 0.36 93 1011.7
20260507220518 11 103 0.0 0.0 0.00 0.36 0.36 92 1011.7
20260507220015 11 153 0.0 0.0 0.00 0.36 0.36 93 1012.1
20260507215511 11 149 0.0 0.0 0.00 0.36 0.36 94 1011.6
20260507215009 11 153 0.0 0.0 0.00 0.36 0.36 93 1012.0
20260507214506 11 151 0.0 0.0 0.00 0.36 0.36 94 1011.8
20260507214002 11 137 0.0 0.0 0.00 0.36 0.36 94 1011.7
20260507213458 11 132 0.0 1.6 0.00 0.36 0.36 94 1011.6
20260507212955 11 157 0.0 0.0 0.00 0.36 0.36 94 1012.0
20260507212451 11 142 0.0 1.6 0.18 0.36 0.36 95 1011.5
20260507211948 10 157 0.0 0.0 0.18 0.36 0.36 94 1011.6
20260507211445 11 135 0.0 0.0 0.00 0.33 0.33 94 1011.7
20260507210941 10 145 0.0 0.0 0.00 0.33 0.33 94 1011.6
20260507210438 10 152 0.0 0.0 0.13 0.33 0.33 94 1011.7
20260507205934 10 150 1.6 1.6 0.30 0.33 0.33 93 1011.7
20260507205432 10 152 0.0 0.0 0.18 0.30 0.30 93 1012.0
20260507204928 10 160 0.0 0.0 0.30 0.28 0.28 92 1012.6
20260507204419 11 154 0.0 0.0 0.43 0.28 0.28 92 1012.3
20260507203917 11 155 0.0 1.6 0.13 0.23 0.23 91 1011.9
20260507203415 11 160 0.0 0.0 0.00 0.20 0.20 91 1012.2
20260507202910 11 141 0.0 1.6 0.18 0.20 0.20 90 1012.1
20260507202401 11 141 1.6 1.6 0.18 0.20 0.20 89 1011.9
20260507201857 11 121 1.6 4.8 0.13 0.18 0.18 88 1012.0
20260507201352 12 133 0.0 1.6 0.13 0.18 0.18 87 1012.0
20260507200849 12 166 0.0 1.6 0.00 0.15 0.15 84 1012.2
20260507200345 12 154 0.0 0.0 0.00 0.15 0.15 81 1012.2
20260507195841 12 152 0.0 1.6 0.00 0.15 0.15 77 1012.3
20260507195339 12 70 0.0 0.0 0.00 0.15 0.15 77 1011.9
20260507194836 12 154 0.0 1.6 0.00 0.15 0.15 77 1011.8
20260507194332 12 150 0.0 1.6 0.00 0.15 0.15 79 1012.0
20260507193828 12 76 1.6 1.6 0.00 0.15 0.15 76 1012.2
20260507193326 13 0 3.2 4.8 0.00 0.15 0.15 76 1012.1
20260507192820 13 132 0.0 3.2 0.00 0.15 0.15 76 1012.1
20260507192313 13 151 0.0 1.6 0.00 0.15 0.15 76 1012.4
20260507191809 13 195 1.6 1.6 0.00 0.15 0.15 75 1012.5
20260507191305 13 60 1.6 3.2 0.00 0.15 0.15 74 1012.5
20260507190802 13 151 0.0 0.0 0.00 0.15 0.15 74 1012.3
20260507190301 13 158 0.0 0.0 0.00 0.15 0.15 73 1012.3
20260507185800 13 142 0.0 1.6 0.00 0.15 0.15 73 1012.4
20260507185255 13 121 0.0 0.0 0.00 0.15 0.15 75 1012.4
20260507184753 13 339 3.2 4.8 0.00 0.15 0.15 74 1012.3
20260507184250 13 111 0.0 0.0 0.00 0.15 0.15 76 1012.2
20260507183747 13 142 1.6 4.8 0.00 0.15 0.15 75 1012.3
20260507183243 13 136 1.6 1.6 0.00 0.15 0.15 74 1012.5
20260507182741 13 144 1.6 3.2 0.00 0.15 0.15 72 1012.6
20260507182236 13 135 1.6 3.2 0.00 0.15 0.15 71 1012.3
20260507181734 14 143 0.0 6.4 0.00 0.15 0.15 72 1012.5
20260507181230 14 119 0.0 3.2 0.00 0.15 0.15 72 1012.4
20260507180727 13 162 1.6 3.2 0.00 0.15 0.15 72 1012.3
20260507180223 14 101 0.0 3.2 0.00 0.15 0.15 71 1012.3
20260507175719 14 147 0.0 9.7 0.00 0.15 0.15 72 1012.4
20260507175216 13 35 0.0 3.2 0.00 0.15 0.15 70 1012.5
20260507174714 13 250 3.2 9.7 0.00 0.15 0.15 72 1012.6
20260507174211 13 145 0.0 4.8 0.00 0.15 0.15 72 1012.7
20260507173708 13 84 3.2 4.8 0.00 0.15 0.15 74 1012.7
20260507173205 13 39 3.2 6.4 0.00 0.15 0.15 73 1013.0
20260507172701 13 45 1.6 4.8 0.00 0.15 0.15 73 1012.8
20260507172158 13 137 1.6 1.6 0.00 0.15 0.15 73 1012.9
20260507171653 13 143 0.0 3.2 0.00 0.15 0.15 74 1012.9
20260507171150 13 130 1.6 6.4 0.00 0.15 0.15 73 1013.0
20260507170647 13 133 0.0 3.2 0.00 0.15 0.15 74 1013.3
20260507170145 13 141 0.0 1.6 0.00 0.15 0.15 76 1013.3
20260507165640 13 124 0.0 0.0 0.00 0.15 0.15 75 1013.3
20260507165137 13 141 0.0 1.6 0.00 0.15 0.15 75 1013.3
20260507164632 13 149 0.0 3.2 0.00 0.15 0.15 76 1013.2
20260507164130 13 145 0.0 4.8 0.00 0.15 0.15 76 1013.4
20260507163627 12 346 1.6 12.9 0.00 0.15 0.15 74 1013.3
20260507163124 13 141 0.0 4.8 0.00 0.15 0.15 77 1013.7
20260507162619 13 139 3.2 3.2 0.00 0.15 0.15 79 1013.5
20260507162111 13 9 6.4 9.7 0.00 0.15 0.15 78 1013.4
20260507161608 13 154 1.6 3.2 0.00 0.15 0.15 79 1013.4
20260507161104 13 106 0.0 1.6 0.00 0.15 0.15 79 1013.5
20260507160600 13 165 3.2 11.3 0.00 0.15 0.15 78 1013.6
20260507160057 12 119 3.2 3.2 0.00 0.15 0.15 79 1013.7
20260507155552 12 23 4.8 6.4 0.00 0.15 0.15 80 1013.5
20260507155050 12 357 3.2 6.4 0.00 0.15 0.15 80 1013.6
20260507154546 12 107 1.6 6.4 0.00 0.15 0.15 80 1013.6
20260507154043 12 281 6.4 9.7 0.00 0.15 0.15 79 1013.6
20260507153540 12 163 1.6 12.9 0.00 0.15 0.15 79 1013.3
20260507153036 12 332 3.2 6.4 0.00 0.15 0.15 79 1013.5
20260507152532 13 127 3.2 4.8 0.00 0.15 0.15 78 1013.6
20260507152029 13 354 1.6 17.7 0.00 0.15 0.15 77 1013.5
20260507151525 13 58 0.0 14.5 0.00 0.15 0.15 76 1013.8
20260507151022 13 111 1.6 11.3 0.00 0.15 0.15 77 1013.8
20260507150519 13 49 3.2 4.8 0.00 0.15 0.15 79 1013.9
20260507150016 13 145 1.6 4.8 0.00 0.15 0.15 79 1013.4
20260507145510 13 356 3.2 4.8 0.00 0.15 0.15 80 1013.2
20260507145009 13 69 3.2 9.7 0.00 0.15 0.15 79 1013.4
20260507144505 13 21 4.8 6.4 0.00 0.15 0.15 79 1013.2
20260507144003 13 116 3.2 4.8 0.00 0.15 0.15 78 1013.4
20260507143500 13 327 1.6 4.8 0.00 0.15 0.15 79 1013.5
20260507142956 13 133 0.0 3.2 0.00 0.15 0.15 80 1013.3
20260507142452 13 20 1.6 4.8 0.00 0.15 0.15 78 1013.5
20260507141949 13 138 0.0 0.0 0.00 0.15 0.15 79 1013.6
20260507141445 13 149 1.6 3.2 0.00 0.15 0.15 79 1013.6
20260507140942 13 81 3.2 12.9 0.00 0.15 0.15 79 1013.6
20260507140439 13 170 3.2 6.4 0.00 0.15 0.15 79 1013.8
20260507135936 13 148 1.6 6.4 0.00 0.15 0.15 79 1013.8
20260507135433 13 15 1.6 3.2 0.00 0.15 0.15 79 1013.6
20260507134930 14 19 3.2 4.8 0.00 0.15 0.15 78 1013.8
20260507134427 13 172 1.6 6.4 0.00 0.15 0.15 79 1013.4
20260507133923 13 31 6.4 9.7 0.00 0.15 0.15 78 1013.4
20260507133418 13 29 3.2 4.8 0.00 0.15 0.15 78 1013.4
20260507132912 13 145 1.6 3.2 0.00 0.15 0.15 79 1013.3
20260507132407 13 325 9.7 12.9 0.00 0.15 0.15 80 1013.2
20260507131906 13 223 3.2 9.7 0.00 0.15 0.15 80 1013.4
20260507131401 13 326 8.0 12.9 0.00 0.15 0.15 80 1013.6
20260507130858 13 8 4.8 9.7 0.00 0.15 0.15 81 1013.2
20260507130355 13 163 1.6 11.3 0.00 0.15 0.15 82 1013.2
20260507125854 13 51 3.2 4.8 0.00 0.15 0.15 83 1013.4
20260507125351 13 332 9.7 14.5 0.00 0.15 0.15 82 1013.2
20260507124849 13 134 0.0 11.3 0.00 0.15 0.15 84 1013.5
20260507124344 13 163 6.4 11.3 0.00 0.15 0.15 85 1013.2
20260507123843 13 141 1.6 4.8 0.00 0.15 0.15 90 1013.2
20260507123340 13 10 4.8 11.3 0.00 0.15 0.15 91 1013.4
20260507122836 13 68 3.2 4.8 0.00 0.15 0.15 92 1013.1
20260507122332 13 82 1.6 3.2 0.00 0.15 0.15 92 1013.0
20260507121828 13 349 1.6 3.2 0.00 0.15 0.15 92 1012.8
20260507121324 13 43 6.4 12.9 0.00 0.15 0.15 92 1013.0
20260507120821 13 17 1.6 4.8 0.00 0.15 0.15 92 1012.8
20260507120317 13 92 1.6 3.2 0.00 0.15 0.15 92 1013.3
20260507115813 13 144 1.6 6.4 0.00 0.15 0.15 92 1013.2
20260507115309 13 4 4.8 4.8 0.00 0.15 0.15 92 1012.9
20260507114805 13 274 3.2 3.2 0.00 0.15 0.15 91 1013.3
20260507114302 13 229 3.2 4.8 0.00 0.15 0.15 91 1013.2
20260507113800 13 168 1.6 4.8 0.00 0.15 0.15 91 1013.1
20260507113256 13 301 1.6 4.8 0.00 0.15 0.15 92 1013.0
20260507112754 13 122 4.8 6.4 0.00 0.15 0.15 93 1012.8
20260507112251 13 113 4.8 4.8 0.00 0.15 0.15 93 1012.8
20260507111749 13 142 0.0 1.6 0.00 0.15 0.15 94 1012.6
20260507111245 13 19 3.2 4.8 0.00 0.15 0.15 95 1012.7
20260507110741 13 151 0.0 1.6 0.00 0.15 0.15 95 1012.9
20260507110238 13 178 0.0 0.0 0.00 0.15 0.15 95 1012.7
20260507105735 13 225 0.0 1.6 0.00 0.15 0.15 96 1012.5
20260507105231 13 22 0.0 1.6 0.00 0.15 0.15 96 1012.5
20260507104728 13 173 0.0 3.2 0.00 0.15 0.15 96 1012.4
20260507104225 13 94 1.6 3.2 0.00 0.15 0.15 96 1012.6
20260507103721 13 322 1.6 3.2 0.00 0.15 0.15 96 1012.0
20260507103217 13 352 1.6 4.8 0.00 0.15 0.15 96 1012.3
20260507102713 13 74 1.6 1.6 0.00 0.15 0.15 96 1012.3
20260507102210 13 153 0.0 4.8 0.00 0.15 0.15 96 1012.0
20260507101706 13 107 1.6 4.8 0.00 0.15 0.15 96 1011.9
20260507101201 13 162 3.2 3.2 0.00 0.15 0.15 97 1012.1
20260507100659 13 149 0.0 4.8 0.00 0.15 0.15 97 1012.3
20260507100158 13 359 3.2 4.8 0.00 0.15 0.15 96 1012.3
20260507095655 13 172 0.0 1.6 0.18 0.15 0.15 96 1012.4
20260507095151 13 68 4.8 6.4 0.66 0.15 0.15 95 1012.2
20260507094648 13 289 4.8 6.4 0.48 0.13 0.13 94 1012.2
20260507094145 13 203 1.6 3.2 0.00 0.05 0.05 93 1012.4
20260507093642 13 283 3.2 9.7 0.00 0.05 0.05 93 1012.5
20260507093141 13 159 3.2 4.8 0.00 0.05 0.05 93 1012.4
20260507092637 13 127 0.0 1.6 0.00 0.05 0.05 93 1012.1
20260507092134 14 111 1.6 9.7 0.00 0.05 0.05 92 1012.3
20260507091630 14 149 1.6 4.8 0.13 0.05 0.05 94 1012.3
20260507091126 14 35 3.2 3.2 0.30 0.05 0.05 93 1012.0
20260507090622 15 163 1.6 3.2 0.18 0.03 0.03 93 1012.5
20260507090120 15 77 8.0 11.3 0.00 0.00 0.00 92 1012.2
20260507085616 15 8 3.2 9.7 0.00 0.00 0.00 92 1012.4
20260507085113 15 182 1.6 6.4 0.00 0.00 0.00 92 1012.0
20260507084610 15 150 0.0 12.9 0.00 0.00 0.00 92 1012.0
20260507084107 15 1 4.8 6.4 0.00 0.00 0.00 92 1011.8
20260507083603 15 6 6.4 12.9 0.00 0.00 0.00 92 1011.8
20260507083101 15 41 1.6 4.8 0.00 0.00 0.00 91 1011.4
20260507082556 16 294 3.2 12.9 0.00 0.00 0.00 91 1011.7
20260507082053 16 102 1.6 6.4 0.00 0.00 0.00 92 1011.8
20260507081549 17 317 4.8 9.7 0.00 0.00 0.00 93 1011.6
20260507081046 17 102 1.6 14.5 0.00 0.00 0.00 93 1011.4
20260507080542 18 200 1.6 11.3 0.00 0.00 0.00 94 1011.0
20260507080038 18 162 0.0 6.4 0.00 0.00 0.00 93 1011.0
20260507075534 19 33 3.2 9.7 0.00 0.00 0.00 92 1010.9
20260507075030 19 349 3.2 9.7 0.00 0.00 0.00 92 1010.5
20260507074527 19 344 0.0 3.2 0.00 0.00 0.00 92 1010.9
20260507074026 19 151 0.0 3.2 0.00 0.00 0.00 91 1010.9
20260507073521 19 144 0.0 1.6 0.00 0.00 0.00 91 1010.9
20260507073018 19 149 0.0 1.6 0.00 0.00 0.00 91 1010.8
20260507072516 19 145 0.0 0.0 0.00 0.00 0.00 90 1011.0
20260507072013 20 141 0.0 0.0 0.00 0.00 0.00 90 1010.9
20260507071510 19 102 0.0 0.0 0.00 0.00 0.00 90 1011.1
20260507071006 20 156 0.0 1.6 0.00 0.00 0.00 90 1011.1
20260507070504 20 109 1.6 1.6 0.00 0.00 0.00 90 1010.8
20260507070001 20 153 0.0 1.6 0.00 0.00 0.00 89 1010.4